TimeCDT,TemperatureF,Dew PointF,Humidity,Sea Level PressureIn,VisibilityMPH,Wind Direction,Wind SpeedMPH,Gust SpeedMPH,PrecipitationIn,Events,Conditions,WindDirDegrees,DateUTC
12:15 AM,59.0,59.0,100,29.91,10.0,Calm,Calm,-,N/A,,Clear,0,2013-09-26 05:15:00
12:35 AM,59.0,59.0,100,29.91,10.0,Calm,Calm,-,N/A,,Clear,0,2013-09-26 05:35:00
12:55 AM,59.0,59.0,100,29.92,10.0,Calm,Calm,-,N/A,,Clear,0,2013-09-26 05:55:00
1:15 AM,59.0,59.0,100,29.92,9.0,Calm,Calm,-,N/A,,Clear,0,2013-09-26 06:15:00
1:35 AM,59.0,59.0,100,29.92,9.0,Calm,Calm,-,N/A,,Clear,0,2013-09-26 06:35:00
1:55 AM,59.0,59.0,100,29.92,10.0,Calm,Calm,-,N/A,,Clear,0,2013-09-26 06:55:00
2:15 AM,59.0,59.0,100,29.93,10.0,Calm,Calm,-,N/A,,Clear,0,2013-09-26 07:15:00
2:35 AM,57.2,57.2,100,29.93,5.0,Calm,Calm,-,N/A,,Clear,0,2013-09-26 07:35:00
2:55 AM,57.2,57.2,100,29.93,3.0,Calm,Calm,-,N/A,,Clear,0,2013-09-26 07:55:00
3:15 AM,55.4,55.4,100,29.94,0.2,Calm,Calm,-,N/A,Fog,Fog,0,2013-09-26 08:15:00
3:35 AM,57.2,57.2,100,29.93,0.8,Calm,Calm,-,N/A,,Mist,0,2013-09-26 08:35:00
3:55 AM,57.2,57.2,100,29.94,0.5,Calm,Calm,-,N/A,Fog,Fog,0,2013-09-26 08:55:00
4:15 AM,55.4,55.4,100,29.94,0.2,Calm,Calm,-,N/A,Fog,Fog,0,2013-09-26 09:15:00
4:35 AM,57.2,57.2,100,29.94,0.5,Calm,Calm,-,N/A,Fog,Fog,0,2013-09-26 09:35:00
4:55 AM,57.2,57.2,100,29.94,4.0,Calm,Calm,-,N/A,,Clear,0,2013-09-26 09:55:00
5:15 AM,57.2,57.2,100,29.95,8.0,Calm,Calm,-,N/A,,Clear,0,2013-09-26 10:15:00
5:35 AM,57.2,57.2,100,29.95,5.0,Calm,Calm,-,N/A,,Clear,0,2013-09-26 10:35:00
5:55 AM,57.2,57.2,100,29.95,10.0,Calm,Calm,-,N/A,,Clear,0,2013-09-26 10:55:00
6:15 AM,57.2,57.2,100,29.95,10.0,Calm,Calm,-,N/A,,Clear,0,2013-09-26 11:15:00
6:35 AM,55.4,55.4,100,29.95,10.0,Calm,Calm,-,N/A,,Clear,0,2013-09-26 11:35:00
6:55 AM,55.4,55.4,100,29.96,10.0,Calm,Calm,-,N/A,,Clear,0,2013-09-26 11:55:00
7:15 AM,55.4,55.4,100,29.96,10.0,Calm,Calm,-,N/A,,Clear,0,2013-09-26 12:15:00
7:35 AM,57.2,57.2,100,29.97,10.0,Calm,Calm,-,N/A,,Clear,0,2013-09-26 12:35:00
7:55 AM,57.2,57.2,100,29.97,10.0,Calm,Calm,-,N/A,,Clear,0,2013-09-26 12:55:00
8:15 AM,59.0,59.0,100,29.97,10.0,ESE,3.5,-,N/A,,Clear,120,2013-09-26 13:15:00
8:35 AM,59.0,59.0,100,29.97,10.0,ESE,3.5,-,N/A,,Clear,120,2013-09-26 13:35:00
8:55 AM,62.6,59.0,88,29.97,10.0,Calm,Calm,-,N/A,,Clear,0,2013-09-26 13:55:00
9:15 AM,64.4,60.8,88,29.98,10.0,ESE,6.9,-,N/A,,Clear,120,2013-09-26 14:15:00
9:35 AM,68.0,62.6,83,29.98,10.0,SE,4.6,-,N/A,,Clear,130,2013-09-26 14:35:00
9:55 AM,69.8,62.6,78,29.98,10.0,SSE,6.9,-,N/A,,Clear,150,2013-09-26 14:55:00
10:15 AM,73.4,62.6,69,29.98,10.0,SSE,8.1,-,N/A,,Clear,150,2013-09-26 15:15:00
10:35 AM,73.4,62.6,69,29.99,10.0,SE,9.2,-,N/A,,Clear,140,2013-09-26 15:35:00
10:55 AM,75.2,62.6,65,29.99,10.0,SSE,5.8,-,N/A,,Clear,160,2013-09-26 15:55:00
11:15 AM,77.0,62.6,61,29.99,10.0,SSE,12.7,18.4,N/A,,Clear,160,2013-09-26 16:15:00
11:35 AM,77.0,62.6,61,29.98,10.0,SSE,11.5,19.6,N/A,,Clear,150,2013-09-26 16:35:00
11:55 AM,78.8,62.6,57,29.98,10.0,SSE,15.0,19.6,N/A,,Clear,150,2013-09-26 16:55:00
12:15 PM,80.6,62.6,54,29.97,10.0,SSE,12.7,19.6,N/A,,Clear,160,2013-09-26 17:15:00
12:35 PM,80.6,62.6,54,29.97,10.0,SSE,16.1,21.9,N/A,,Clear,150,2013-09-26 17:35:00
12:55 PM,80.6,62.6,54,29.96,10.0,SSE,15.0,20.7,N/A,,Clear,150,2013-09-26 17:55:00
1:15 PM,82.4,62.6,51,29.96,10.0,SSE,10.4,20.7,N/A,,Clear,160,2013-09-26 18:15:00
1:35 PM,82.4,62.6,51,29.95,10.0,South,11.5,23.0,N/A,,Clear,170,2013-09-26 18:35:00
1:55 PM,82.4,60.8,48,29.95,10.0,SSE,13.8,-,N/A,,Clear,160,2013-09-26 18:55:00
2:15 PM,82.4,62.6,51,29.94,10.0,SSE,10.4,18.4,N/A,,Clear,150,2013-09-26 19:15:00
2:35 PM,84.2,60.8,45,29.94,10.0,South,8.1,16.1,N/A,,Clear,170,2013-09-26 19:35:00
2:55 PM,82.4,60.8,48,29.94,10.0,SSE,15.0,21.9,N/A,,Clear,150,2013-09-26 19:55:00
3:15 PM,82.4,60.8,48,29.93,10.0,SSE,13.8,17.3,N/A,,Partly Cloudy,150,2013-09-26 20:15:00
3:35 PM,84.2,59.0,42,29.93,10.0,SE,13.8,20.7,N/A,,Clear,140,2013-09-26 20:35:00
3:55 PM,84.2,59.0,42,29.93,10.0,SSE,13.8,18.4,N/A,,Clear,160,2013-09-26 20:55:00
4:15 PM,84.2,59.0,42,29.93,10.0,SE,10.4,-,N/A,,Clear,140,2013-09-26 21:15:00
4:35 PM,84.2,59.0,42,29.93,10.0,SSE,9.2,-,N/A,,Clear,150,2013-09-26 21:35:00
4:55 PM,84.2,59.0,42,29.93,10.0,SSE,8.1,-,N/A,,Clear,160,2013-09-26 21:55:00
5:15 PM,82.4,59.0,45,29.93,10.0,SE,12.7,-,N/A,,Clear,140,2013-09-26 22:15:00
5:35 PM,82.4,59.0,45,29.93,10.0,SSE,9.2,-,N/A,,Clear,160,2013-09-26 22:35:00
5:55 PM,80.6,59.0,48,29.93,10.0,SE,9.2,-,N/A,,Clear,130,2013-09-26 22:55:00
6:15 PM,80.6,59.0,48,29.93,10.0,SSE,8.1,-,N/A,,Clear,150,2013-09-26 23:15:00
6:35 PM,77.0,59.0,54,29.93,10.0,Calm,Calm,-,N/A,,Clear,0,2013-09-26 23:35:00
6:55 PM,75.2,60.8,61,29.93,10.0,Calm,Calm,-,N/A,,Clear,0,2013-09-26 23:55:00
7:15 PM,73.4,60.8,65,29.93,10.0,Calm,Calm,-,N/A,,Clear,0,2013-09-27 00:15:00
7:35 PM,71.6,60.8,69,29.94,10.0,Calm,Calm,-,N/A,,Clear,0,2013-09-27 00:35:00
7:55 PM,71.6,60.8,69,29.94,10.0,Calm,Calm,-,N/A,,Clear,0,2013-09-27 00:55:00
8:15 PM,71.6,60.8,69,29.95,10.0,SE,3.5,-,N/A,,Clear,130,2013-09-27 01:15:00
8:35 PM,71.6,60.8,69,29.95,10.0,SE,5.8,-,N/A,,Clear,130,2013-09-27 01:35:00
8:55 PM,69.8,60.8,73,29.95,10.0,ESE,6.9,-,N/A,,Clear,120,2013-09-27 01:55:00
9:15 PM,69.8,60.8,73,29.96,10.0,SE,6.9,-,N/A,,Clear,130,2013-09-27 02:15:00
9:35 PM,71.6,60.8,69,29.97,10.0,ESE,5.8,-,N/A,,Clear,120,2013-09-27 02:35:00
9:55 PM,68.0,60.8,78,29.97,10.0,Calm,Calm,-,N/A,,Clear,0,2013-09-27 02:55:00
10:15 PM,68.0,60.8,78,29.98,10.0,SE,3.5,-,N/A,,Clear,130,2013-09-27 03:15:00
10:35 PM,68.0,60.8,78,29.98,10.0,SE,4.6,-,N/A,,Clear,130,2013-09-27 03:35:00
10:55 PM,68.0,60.8,78,29.98,10.0,ESE,6.9,-,N/A,,Clear,120,2013-09-27 03:55:00
11:15 PM,68.0,60.8,78,29.99,10.0,SE,4.6,-,N/A,,Clear,130,2013-09-27 04:15:00
11:35 PM,68.0,60.8,78,29.99,10.0,SE,9.2,-,N/A,,Clear,140,2013-09-27 04:35:00
11:55 PM,68.0,60.8,78,30.00,10.0,SE,6.9,-,N/A,,Clear,140,2013-09-27 04:55:00